THOR ABLESTAR DEB, 657

Orbit data source: Space-Track

THOR ABLESTAR DEB, 657 is space debris in LEO originally from a launch on Thu, 29 Jun 1961 UTC launched from the Air Force Eastern Test Range (AFETR). Debris objects in space refer to the collection of defunct objects orbiting the Earth. Examples of debris include non-operational satellites, rocket bodies, and fragments generated from explosions, collisions, or faulty payload assembly.

Loading next visibility...
Identifier
657, 1961-015HJ
Orbit
LEO
Last TLE update
12 hours ago
Origin
Manufacturer
Unknown
Mission
Spacecraft
Bus & Motor
Unknown
Mass
Unknown
Launch date (UTC)
1961-06-29 (64 years ago)
Launch vehicle
Unknown
Launch site
Air Force Eastern Test Range (AFETR)
Object type
Payload
Rocket body
Debris
Shape & HBR
Unknown
Radar Cross Section
Small (<0.1 m²)

Expand to show TLE details & history

TLE from 12 hours ago
0 THOR ABLESTAR DEB
1 00657U 61015HJ  25199.47907749  .00000340  00000-0  85344-3 0  9998
2 00657  66.2276   7.8319 0341388 198.1625 194.0831 13.11667417 60858
Epoch: 2025-07-18T11:29Z
TLE epoch observation values (Epoch: 2025-07-18T11:29:52.295Z)
Latitude
28.46998°
Longitude
-87.41524°
Altitude
1,471.31 km
Speed
7.011 km/s
True Right ascension
01h 26m 19s
True Declination
28° 20' 21"
Sunlit
Object was in daylight at epoch
Visualization orbit readout
Latitude
43.31837°
Longitude
53.38032°
Altitude
1,110.888 km
Speed
7.355 km/s
Apparent Right ascension
06h 50m 11s
Apparent Declination
36° 20' 36"
Sunlit
Object is in daylight
Visualization observer readout
Local Sidereal Time
11:47:33
Azimuth
292.105° WNW
Elevation
33.163°
Doppler factor
1
Orbital elements
Apogee altitude
1,474.46 km
Perigee altitude
956.003 km
Semi-major axis
7,593.369 km
Eccentricity
0.03414
Inclination
66.2276°
RAAN
7.8319°
Arg. of periapsis
198.1625°
True anomaly
193.16912°
Mean anomaly
194.0831°
Eccentric anomaly
193.62242°
Mean motion
3.28013 °/min
Orbital period
109.75 mins
BSTAR
0.00085344
Loading maneuver chart data...
Loading SW <> Apogee altitude chart data...
|